{"data":{"norad_id":64837,"epoch":"2026-05-25T04:20:27.408192Z","epoch_age_seconds":59114,"freshness":"FRESH","line1":"1 64837U 25151X   26145.18087278  .00003487  00000+0  48609-3 0  9992","line2":"2 64837  51.9014 312.3564 0000599 109.5988 250.5040 14.79941617 47980","mean_motion":14.79941617,"eccentricity":5.99e-5,"inclination_deg":51.9014,"raan_deg":312.3564,"arg_perigee_deg":109.5988,"mean_anomaly_deg":250.504,"bstar":0.00048609,"rev_number":4798,"period_min":97.301135629866,"perigee_km":629.08866961217,"apogee_km":629.92818553439,"semimajor_km":7007.6454275733,"source":"CELESTRAK","updated_at":"2026-05-25T13:38:04.827764Z"}}